Total_Precipitation_Accumulation
0.08 0.16 0.79 0.72 0.36 0.31 0.19 0.26 0.36 0.46 0.56 0.59 0.38 0.25 0.20 0.20 0.17 0.13 0.12 0.17 0.19 0.23 0.28 0.33 0.34 0.47 0.66 0.53 0.32 0.10 0.11 0.09 0.06 0.05 0.07 0.12 0.15 0.16 0.23 0.28 0.27 0.27 0.32
0.07 0.19 0.48 0.47 0.27 0.25 0.21 0.19 0.24 0.20 0.33 0.40 0.46 0.50 0.34 0.23 0.19 0.12 0.13 0.13 0.19 0.21 0.29 0.41 0.44 0.39 0.20 0.16 0.12 0.06 0.06 0.02 0.02 0.01 0.01 0.03 0.24 0.33 0.17 0.16 0.23 0.19 0.26
0.05 0.15 0.26 0.40 0.30 0.25 0.19 0.14 0.13 0.15 0.22 0.29 0.42 0.47 0.44 0.32 0.20 0.15 0.23 0.25 0.25 0.37 0.43 0.33 0.40 0.22 0.07 0.03 0.04 0.09 0.10 0.06 0.04 0.04 0.04 0.08 0.21 0.24 0.17 0.17 0.13 0.12 0.13
0.05 0.16 0.17 0.38 0.42 0.31 0.18 0.15 0.12 0.15 0.18 0.20 0.24 0.35 0.46 0.42 0.33 0.16 0.18 0.19 0.26 0.36 0.43 0.20 0.21 0.23 0.19 0.10 0.01 0.03 0.04 0.04 0.03 0.02 0.04 0.11 0.33 0.50 0.43 0.29 0.37 0.36 0.51
0.08 0.17 0.25 0.48 0.46 0.39 0.25 0.15 0.21 0.20 0.18 0.19 0.23 0.40 0.54 0.52 0.32 0.21 0.16 0.16 0.24 0.38 0.47 0.13 0.15 0.21 0.23 0.14 0.03 0.03 0.04 0.06 0.05 0.03 0.04 0.09 0.19 0.28 0.38 0.55 0.47 0.44 0.36
0.09 0.15 0.25 0.52 0.51 0.39 0.31 0.29 0.25 0.23 0.26 0.24 0.32 0.54 0.65 0.70 0.42 0.26 0.25 0.20 0.17 0.22 0.30 0.16 0.11 0.10 0.15 0.08 0.03 0.03 0.04 0.09 0.03 0.00 0.00 0.01 0.07 0.29 0.31 0.35 0.31 0.33 0.33
0.12 0.19 0.29 0.54 0.44 0.29 0.29 0.33 0.30 0.30 0.32 0.25 0.31 0.58 0.67 0.58 0.73 0.52 0.43 0.25 0.15 0.22 0.45 0.42 0.16 0.14 0.13 0.10 0.02 0.03 0.07 0.04 0.00 0.00 0.00 0.00 0.05 0.14 0.14 0.15 0.23 0.24 0.32
0.36 0.40 0.38 0.51 0.51 0.27 0.22 0.23 0.23 0.25 0.31 0.27 0.33 0.68 0.85 0.55 0.53 0.54 0.49 0.26 0.18 0.20 0.45 0.43 0.26 0.12 0.12 0.18 0.16 0.13 0.07 0.02 0.00 0.00 0.00 0.00 0.01 0.04 0.09 0.10 0.17 0.22 0.20
1.07 1.00 0.78 0.53 0.41 0.20 0.15 0.12 0.12 0.12 0.19 0.21 0.29 0.56 0.65 0.43 0.41 0.38 0.43 0.30 0.25 0.24 0.36 0.34 0.35 0.19 0.13 0.21 0.30 0.14 0.04 0.01 0.00 0.00 0.00 0.01 0.04 0.06 0.18 0.27 0.24 0.21 0.23
1.57 1.59 1.47 1.27 0.57 0.21 0.21 0.15 0.05 0.08 0.15 0.13 0.23 0.40 0.21 0.17 0.10 0.15 0.16 0.25 0.38 0.34 0.33 0.33 0.30 0.29 0.25 0.24 0.25 0.25 0.05 0.01 0.01 0.00 0.00 0.00 0.04 0.22 0.40 0.35 0.28 0.26 0.28
2.11 1.82 1.73 1.44 0.82 0.33 0.26 0.24 0.08 0.04 0.05 0.08 0.18 0.32 0.18 0.07 0.03 0.02 0.01 0.04 0.14 0.25 0.31 0.31 0.30 0.18 0.15 0.10 0.05 0.06 0.09 0.02 0.04 0.03 0.01 0.01 0.11 0.26 0.20 0.14 0.15 0.18 0.21
2.03 2.06 2.40 1.84 1.48 0.60 0.41 0.46 0.23 0.08 0.02 0.01 0.10 0.20 0.12 0.09 0.04 0.03 0.02 0.02 0.07 0.16 0.18 0.25 0.29 0.11 0.01 0.00 0.00 0.03 0.05 0.08 0.08 0.04 0.02 0.05 0.13 0.19 0.17 0.17 0.20 0.19 0.17
1.96 1.72 1.75 1.81 2.17 1.20 0.81 0.61 0.42 0.17 0.11 0.02 0.03 0.21 0.18 0.08 0.05 0.02 0.02 0.03 0.11 0.08 0.11 0.08 0.08 0.02 0.00 0.01 0.02 0.03 0.09 0.11 0.07 0.06 0.06 0.11 0.12 0.15 0.12 0.13 0.15 0.17 0.15
0.98 1.77 2.06 1.79 1.91 1.85 1.59 1.09 0.54 0.28 0.14 0.09 0.04 0.08 0.26 0.18 0.18 0.16 0.07 0.08 0.12 0.08 0.12 0.11 0.08 0.02 0.01 0.02 0.03 0.04 0.06 0.07 0.05 0.04 0.04 0.05 0.04 0.08 0.08 0.10 0.13 0.16 0.17
0.68 1.03 1.21 1.68 2.03 2.01 1.48 1.51 1.18 0.49 0.19 0.07 0.07 0.11 0.22 0.35 0.34 0.26 0.27 0.27 0.22 0.16 0.12 0.13 0.16 0.18 0.14 0.09 0.08 0.07 0.05 0.05 0.05 0.04 0.03 0.03 0.03 0.05 0.07 0.10 0.12 0.15 0.23
0.76 0.83 0.82 0.87 1.46 1.91 1.37 0.77 1.39 1.59 0.76 0.15 0.03 0.05 0.12 0.26 0.39 0.49 0.42 0.41 0.31 0.25 0.23 0.23 0.33 0.35 0.30 0.21 0.13 0.08 0.06 0.08 0.13 0.09 0.08 0.11 0.08 0.06 0.07 0.09 0.12 0.20 0.34
0.76 0.82 0.58 0.61 0.70 1.06 1.75 0.98 0.63 1.06 1.50 0.79 0.17 0.15 0.12 0.17 0.27 0.33 0.53 0.54 0.43 0.44 0.61 0.67 0.80 0.70 0.58 0.39 0.21 0.13 0.13 0.11 0.10 0.17 0.19 0.16 0.13 0.11 0.09 0.10 0.16 0.15 0.16
0.88 0.77 0.82 0.59 0.54 0.64 0.67 1.20 1.03 0.70 0.81 0.93 0.47 0.16 0.12 0.12 0.16 0.25 0.21 0.24 0.38 0.50 0.57 0.55 0.62 0.77 0.79 0.72 0.47 0.31 0.28 0.26 0.23 0.21 0.20 0.15 0.12 0.11 0.12 0.10 0.18 0.20 0.16
1.07 1.19 1.15 1.17 0.94 0.73 0.89 1.06 1.29 1.43 0.82 0.69 0.71 0.31 0.14 0.14 0.15 0.20 0.24 0.29 0.35 0.39 0.43 0.48 0.61 0.65 0.74 0.66 0.56 0.63 0.81 0.81 0.58 0.43 0.31 0.20 0.17 0.16 0.13 0.16 0.19 0.27 0.34
0.91 1.53 1.62 1.63 1.73 1.70 1.57 1.88 2.34 1.89 1.48 0.98 0.72 0.54 0.39 0.17 0.16 0.25 0.25 0.28 0.36 0.35 0.34 0.39 0.47 0.53 0.51 0.51 0.55 0.50 0.48 0.60 0.81 0.85 0.76 0.68 0.49 0.35 0.28 0.27 0.30 0.31 0.33
0.81 1.03 1.79 2.10 2.08 2.41 2.20 2.08 1.77 1.86 1.31 0.86 0.76 0.78 0.79 0.58 0.40 0.29 0.26 0.22 0.20 0.17 0.18 0.23 0.33 0.35 0.28 0.41 0.55 0.27 0.21 0.19 0.16 0.13 0.24 0.37 0.40 0.35 0.33 0.37 0.43 0.47 0.52
0.83 1.14 1.18 1.74 2.19 2.13 2.36 2.23 2.24 1.80 1.50 1.20 1.22 0.98 0.92 0.81 0.78 0.67 0.49 0.43 0.32 0.32 0.29 0.24 0.25 0.28 0.28 0.47 0.64 0.50 0.24 0.12 0.09 0.09 0.14 0.17 0.21 0.40 0.40 0.40 0.46 0.47 0.48
1.06 1.10 1.40 1.60 1.91 1.96 2.24 2.68 2.67 2.51 2.11 1.76 1.28 1.13 1.19 1.14 1.29 1.33 1.23 1.19 1.11 0.87 0.65 0.62 0.53 0.52 0.54 0.51 0.61 0.77 0.45 0.22 0.18 0.18 0.16 0.21 0.27 0.36 0.45 0.63 0.75 0.59 0.52
1.00 0.97 1.09 1.65 2.32 2.63 2.41 2.43 2.60 2.79 2.67 2.34 2.48 2.21 1.90 1.77 1.85 2.19 2.32 2.17 2.01 1.64 1.55 1.66 1.67 1.48 1.46 1.13 1.06 0.99 0.93 0.67 0.56 0.41 0.30 0.34 0.48 1.09 1.37 1.21 1.08 1.26 1.29
0.79 0.90 0.87 1.18 1.73 2.93 3.39 3.45 3.37 2.87 2.79 2.55 2.41 2.60 2.29 2.25 2.09 2.01 2.29 2.74 2.77 2.89 2.57 2.23 2.23 2.22 2.12 2.09 1.85 1.64 1.44 1.34 1.38 1.27 0.85 0.63 0.56 0.97 0.83 0.77 0.75 0.72 1.05
0.55 0.69 0.74 0.83 1.26 1.91 3.38 4.54 4.32 3.86 3.14 2.90 2.99 2.84 3.02 2.48 2.18 1.98 2.42 2.67 2.93 2.64 2.42 2.55 2.46 2.20 2.03 1.76 1.68 1.64 1.48 1.31 1.15 1.16 0.91 0.55 0.42 0.35 0.30 0.35 0.50 0.58 0.55